TimeEST,TemperatureF,Dew PointF,Humidity,Sea Level PressureIn,VisibilityMPH,Wind Direction,Wind SpeedMPH,Gust SpeedMPH,PrecipitationIn,Events,Conditions,WindDirDegrees,DateUTC
12:53 AM,30.9,27.0,85,30.11,9.0,Calm,Calm,-,N/A,,Clear,0,2013-12-20 05:53:00
1:53 AM,30.0,26.1,85,30.11,7.0,Calm,Calm,-,N/A,,Clear,0,2013-12-20 06:53:00
2:53 AM,30.0,27.0,88,30.11,7.0,Calm,Calm,-,N/A,,Clear,0,2013-12-20 07:53:00
3:53 AM,30.0,26.1,85,30.11,7.0,Calm,Calm,-,N/A,,Clear,0,2013-12-20 08:53:00
4:53 AM,28.9,26.1,89,30.11,6.0,Calm,Calm,-,N/A,,Clear,0,2013-12-20 09:53:00
5:53 AM,28.0,25.0,88,30.10,6.0,Calm,Calm,-,N/A,,Clear,0,2013-12-20 10:53:00
6:53 AM,27.0,24.1,89,30.10,4.0,Calm,Calm,-,N/A,,Clear,0,2013-12-20 11:53:00
7:39 AM,27.0,25.0,92,30.09,2.5,Calm,Calm,-,N/A,,Clear,0,2013-12-20 12:39:00
7:51 AM,28.4,26.6,93,30.09,3.0,Calm,Calm,-,N/A,,Clear,0,2013-12-20 12:51:00
7:53 AM,28.0,26.1,92,30.09,3.0,Calm,Calm,-,N/A,,Clear,0,2013-12-20 12:53:00
8:53 AM,30.0,27.0,88,30.09,4.0,Calm,Calm,-,N/A,,Clear,0,2013-12-20 13:53:00
9:53 AM,39.0,30.9,73,30.05,7.0,Variable,4.6,-,N/A,,Clear,0,2013-12-20 14:53:00
10:53 AM,45.0,33.1,63,30.04,10.0,SE,5.8,-,N/A,,Clear,140,2013-12-20 15:53:00
11:53 AM,46.9,33.1,59,30.00,10.0,South,10.4,-,N/A,,Clear,180,2013-12-20 16:53:00
12:53 PM,46.9,32.0,56,29.97,10.0,South,9.2,-,N/A,,Clear,170,2013-12-20 17:53:00
1:53 PM,46.9,30.9,54,29.97,10.0,South,9.2,-,N/A,,Scattered Clouds,170,2013-12-20 18:53:00
2:53 PM,46.0,30.0,54,29.97,10.0,South,6.9,-,N/A,,Partly Cloudy,170,2013-12-20 19:53:00
3:53 PM,46.0,30.0,54,29.98,10.0,SSE,4.6,-,N/A,,Overcast,160,2013-12-20 20:53:00
4:53 PM,44.1,30.9,60,29.99,10.0,South,6.9,-,N/A,,Overcast,180,2013-12-20 21:53:00
5:53 PM,39.0,30.9,73,29.99,10.0,South,5.8,-,N/A,,Mostly Cloudy,170,2013-12-20 22:53:00
6:53 PM,43.0,32.0,65,29.99,10.0,South,6.9,-,N/A,,Scattered Clouds,170,2013-12-20 23:53:00
7:53 PM,39.0,30.9,73,30.00,10.0,SSE,4.6,-,N/A,,Clear,160,2013-12-21 00:53:00
8:53 PM,41.0,33.1,73,30.00,10.0,SSE,6.9,-,N/A,,Overcast,160,2013-12-21 01:53:00
9:53 PM,41.0,33.1,73,29.99,10.0,SSE,6.9,-,N/A,,Overcast,160,2013-12-21 02:53:00
10:53 PM,39.9,34.0,79,29.99,10.0,South,6.9,-,N/A,,Overcast,170,2013-12-21 03:53:00
11:53 PM,42.1,34.0,73,29.98,10.0,SSE,6.9,-,N/A,,Overcast,160,2013-12-21 04:53:00